ORBCOMM FM118

Last updated on Wed Aug 19 2026 00:03:10 GMT+0000 (Coordinated Universal Time)

1 41183U 15081E 26230.59602906 .00000383 00000+0 11717-3 0 9995 2 41183 47.0042 66.6842 0003114 315.2201 44.8434 14.58942417566842
UTC large
Height (km)
Speed (km/s)
/
Latitude / Longitude
Inclination (degrees)
Orbital Period (minutes)
Azimuth
Elevation
Range (km)
Doppler Factor

Next 0 passes for location: London (51.5072 / 0.1276)

No passes found over London.
ORBCOMM FM118